Regional Weather Roundup
Issued by NWS

Home | Current Version | Previous Version | Text Only | Print | Product List | Glossary Off
Versions: 1 2 3 4 5 6 7 8 9 10 11 12 13 14 15 16 17 18 19 20 21 22 23 24 25 26 27 28 29 30 31 32 33 34 35 36 37 38 39 40 41 42 43 44 45 46 47 48 49 50

000
ASUS43 KMKX 180800
RWRWI

WISCONSIN REGIONAL WEATHER ROUNDUP
NATIONAL WEATHER SERVICE MILWAUKEE/SULLIVAN WI
200 AM CST WED JAN 18 2017

NOTE: "FAIR" INDICATES FEW OR NO CLOUDS BELOW 12,000 FEET WITH NO
SIGNIFICANT WEATHER AND/OR OBSTRUCTIONS TO VISIBILITY.

WIZ001-002-006>008-014>016-023>028-180900-
NORTHWEST WISCONSIN

CITY           SKY/WX    TMP DP  RH WIND       PRES   REMARKS
SUPERIOR ARPT  CLOUDY    25  23  93 SW7       29.86F WCI  17
ASHLAND        CLEAR     27  24  89 SW13      29.85F WCI  16
HAYWARD        CLOUDY    29  27  92 S8        29.89F WCI  21
SIREN          CLOUDY    29  27  93 SW10      29.91F WCI  20
CUMBERLAND     CLOUDY    30  28  93 S10G16    29.92F FOG     WCI  21
RICE LAKE      CLOUDY    30  30  99 S8        29.95F FOG     WCI  23
CHETEK         CLOUDY    30  30 100 S6        29.95S WCI  24
LADYSMITH      FOG       30  29  97 S7        29.95S VSB 1/2 WCI  23
EAU CLAIRE     CLOUDY    31  30  96 SW9       29.98S WCI  23
MENOMONIE      CLOUDY    32  31  95 MISG      29.98S
NEW RICHMOND   CLOUDY    28  28  99 SW15      29.96F FOG     WCI  17
OSCEOLA        CLOUDY    29  29 100 S13       29.98S WCI  19
$$

WIZ003>005-009-010-017-018-180900-
NORTH CENTRAL WISCONSIN

CITY           SKY/WX    TMP DP  RH WIND       PRES   REMARKS
MANITOWISH WTR CLOUDY    16  16 100 S3        29.87F
ARBOR VITAE    CLOUDY    19  18  93 CALM      29.89S FOG
WOODRUFF       CLOUDY    19  18  93 CALM      29.89S FOG
RHINELANDER    CLOUDY    25  24  96 SW3       29.91S
EAGLE RIVER    CLOUDY    16  15  96 CALM      29.89S
LAND O LAKES   CLOUDY    11   9  89 CALM      29.90S
PHILLIPS       FOG      N/A N/A N/A S5        29.90S VSB 1
TOMAHAWK       CLOUDY    23  22  95 CALM      29.92S FOG
MEDFORD        FOG       27  26  98 SW8       29.94R VSB 1/4 WCI  18
MERRILL        FOG       23  23  99 CALM        N/A  VSB 1/2
$$

WIZ029-030-035-036-043>047-180900-
CENTRAL WISCONSIN

CITY           SKY/WX    TMP DP  RH WIND       PRES   REMARKS
WAUSAU         FOG       27  27 100 SW7       29.94S VSB 3/4 WCI  19
MOSINEE        SNOW      30  30 100 SW8       29.96S VSB 1/4 WCI  23
MARSHFIELD     FOG       29  28  96 W12       29.96R VSB 1/4 WCI  19
STEVENS POINT  FOG       30  30 100 W5        29.98R VSB 3/4 WCI  25
WAUPACA        CLOUDY    34  33  94 W8        29.97S FOG     WCI  27
WAUTOMA        CLOUDY    33  32  96 W10       30.00R FOG     WCI  25
WISC RAPIDS    NOT AVBL
CAMP DOUGLAS   FOG       32  32 100 W8        30.00R VSB 1   WCI  25
$$

WIZ011>013-019>022-031-037>040-048>050-180900-
NORTHEAST WISCONSIN

CITY           SKY/WX    TMP DP  RH WIND       PRES   REMARKS
ANTIGO         FOG       20  19  98 CALM      29.93R VSB 1/4
SHAWANO        FOG       32  31  96 CALM      29.95R VSB 1/2
OCONTO         NOT AVBL
STURGEON BAY   NOT AVBL
GREEN BAY      FOG       34  34 100 SW6       29.96R VSB 1/4 WCI  29
MANITOWOC      FOG       34  34 100 W6        29.97S VSB 1   WCI  29
APPLETON       FOG       32  32 100 W10       29.94S VSB 1/4 WCI  24
CLINTONVILLE   FOG       32  32 100 W7        29.96R VSB 1/2 WCI  26
OSHKOSH        FOG       34  32  92 W6        29.97R VSB 1/2 WCI  29
$$

WIZ032>034-041-042-053>061-180900-
SOUTHWEST WISCONSIN

CITY           SKY/WX    TMP DP  RH WIND       PRES   REMARKS
LA CROSSE      CLOUDY    35  32  88 SW6       30.04R WCI  30
SPARTA         FOG       31  31 100 W5        30.03R VSB 1/2 WCI  27
VIROQUA        CLOUDY    31  31 100 W10       30.02R VSB 1/4 WCI  22
BOSCOBEL       CLOUDY    34  32  92 SW8       30.07R FOG     WCI  27
PRAIRIE DU CHI CLOUDY    33  32  95 W9        30.06R WCI  26
PLATTEVILLE    CLOUDY    33  33 100 W9        30.05R VSB 1/2 WCI  26
$$

WIZ056-057-062-063-064-067-068-180900-
SOUTH CENTRAL WISCONSIN

CITY           SKY/WX    TMP DP  RH WIND       PRES   REMARKS
REEDSBURG      NOT AVBL
BARABOO/DELLS  FOG       32  32  99 SW7       30.00R VSB 1/4 WCI  26
LONE ROCK      NOT AVBL
MINERAL POINT  FOG       34  34 100 W6        30.01S VSB 1/4 WCI  29
MADISON        CLOUDY    34  33  96 W5        30.02R WCI  30
MIDDLETON      CLOUDY    35  35 100 W7        30.01R WCI  29
WATERTOWN      CLOUDY    33  33 100 W5        30.00R FOG     WCI  29
MONROE         MIX PCPN  32  32 100 W8        30.02R VSB 1/2 WCI  25
JANESVILLE     CLOUDY    34  34 100 W6        30.02R FOG     WCI  29
$$

WIZ051-052-058>065-066-070>072-180900-
SOUTHEAST WISCONSIN

CITY           SKY/WX    TMP DP  RH WIND       PRES   REMARKS
MILWAUKEE      CLOUDY    36  33  89 W7        30.01R WCI  30
WAUKESHA       CLOUDY    32  32 100 W8        30.00R FOG     WCI  25
MILWAUKEE/TIMM CLOUDY    34  32  93 W9        30.01R FOG     WCI  26
RACINE         CLOUDY    35  32  88 W7        30.02R FOG     WCI  29
KENOSHA        CLOUDY    34  33  96 W8        30.01R FOG     WCI  27
FOND DU LAC    CLOUDY    35  32  88 SW8       29.98S WCI  29
SHEBOYGAN      CLOUDY    34  32  92 W7        29.98R WCI  28
WEST BEND      CLOUDY    34  34 100 W5        29.99R FOG     WCI  30
JUNEAU         FOG       33  33  99 SW5       30.01R VSB 1/4 WCI  28
$$

LSZ147-162-180900-
LAKE SUPERIOR

STATION/POSITION TIME  TEMP    WIND        PRES    WAVE
                       AIR SEA DIR/SP/G            HT/PER
                 (UTC) (F)     (DEG/KT/KT) (MB)    (FT/S)
DEVILS ISLAND    0700   32     230/ 18/ 20 1011.2F
PORT WING        0740   26     210/  3/  5 1011.2F
SAXON HARBOR     0740   31     200/  5/ 11 1010.8S
$$

LMZ867-665-643>646-180900-
LAKE MICHIGAN

STATION/POSITION TIME  TEMP    WIND        PRES    WAVE
                       AIR SEA DIR/SP/G            HT/PER
                 (UTC) (F)     (DEG/KT/KT) (MB)    (FT/S)
NORTHPORT PIER   0740   33      CALM  /  3 1013.9S
ALGOMA LAKESHORE 0723             CALM       N/A
KEWAUNEE LAKESHO 0730   33     270/  2/  3 1014.0R
SHEBOYGAN LAKESH 0700   34     300/  7/  8 1015.3R
PORT WASHINGTON  0740   35     270/  5/  7 1016.6R
MILWAUKEE LAKESH 0730   35     290/  7/ 10   N/A
KENOSHA   LAKESH 0700   35     280/  8/ 12 1015.9
$$

TC  - TEMPERATURE IN CELSIUS
VSB - VISIBILITY IN STATUTE MILES
WCI - WIND CHILL INDEX
HX  - HEAT INDEX





USA.gov is the U.S. government's official web portal to all federal, state and local government web resources and services.